Content
SEND FEEDBACK

Daily
Averages
Monthly
Summary
Switzerland

GENEVA, SWITZERLAND


Home > Europe > Switzerland
Elevation: 1364 feet     Latitude: 46 15N     Longitude: 006 08E

WEATHER
 
SELECT A DAY
Number of Records: 305,659;   Date Range: 7/1/96 - 7/26/14
 
SHARE

PRINT THIS DATA

[ ← Previous Day ]
WEATHER ALMANAC - JULY 8, 2013
[ Next Day → ]
[ °C ]   °F
We're sorry. There is no daily almanac available for Geneva, Switzerland on July 8, 2013.
WEATHER BY HOUR - JULY 8, 2013
[ °C ]   °F
Local TimeTemperatureDewpointHumidityBarometerVisibilityWind DirectionWind SpeedGust SpeedPrecipitationEventsConditions
12:50 AM66.2 °F59.0 °F78 %30.27 inVariable2.3 mphClear
1:00 AM65.0 °F58.0 °F73 %30.25 inWest (260°)2.3 mph
1:20 AM66.2 °F59.0 °F78 %30.27 inCalmClear
1:50 AM64.4 °F59.0 °F83 %30.27 inVariable1.2 mphClear
2:00 AM64.0 °F58.0 °F76 %30.24 in12.0 miSW (230°)1.2 mph
2:20 AM64.4 °F59.0 °F83 %30.27 inNW (310°)1.2 mphClear
2:50 AM62.6 °F59.0 °F88 %30.27 inCalmClear
3:00 AM63.0 °F58.0 °F80 %30.25 inNorth (350°)1.2 mph
3:50 AM60.8 °F59.0 °F94 %30.27 inWSW (250°)1.2 mphClear
4:00 AM62.0 °F58.0 °F83 %30.25 inWNW (290°)1.2 mph
4:20 AM60.8 °F59.0 °F94 %30.24 inCalmClear
4:50 AM60.8 °F59.0 °F94 %30.24 inCalmClear
5:20 AM59.0 °F59.0 °F100 %30.24 in6.2 miCalmPartly Cloudy
5:50 AM59.0 °F59.0 °F100 %30.27 in6.2 miCalmPartly Cloudy
6:00 AM60.0 °F58.0 °F89 %30.25 inWest (270°)1.2 mph
6:20 AM60.8 °F59.0 °F94 %30.27 in6.2 miVariable1.2 mphPartly Cloudy
6:50 AM60.8 °F59.0 °F94 %30.27 in6.2 miCalmPartly Cloudy
7:00 AM62.0 °F58.0 °F82 %30.25 inCalm
7:20 AM64.4 °F60.8 °F88 %30.27 in6.2 miCalmPartly Cloudy
7:50 AM68.0 °F60.8 °F78 %30.27 in6.2 miCalmPartly Cloudy
8:00 AM66.0 °F60.0 °F77 %30.24 in9.0 miCalmMist
8:20 AM71.6 °F60.8 °F69 %30.27 in6.2 miCalmPartly Cloudy
8:50 AM69.8 °F60.8 °F73 %30.27 in6.2 miNE (40°)5.8 mphPartly Cloudy
9:00 AM69.0 °F60.0 °F65 %30.24 inENE (60°)6.9 mph
9:20 AM71.6 °F60.8 °F69 %30.27 in6.2 miNE (50°)6.9 mphPartly Cloudy
9:50 AM71.6 °F62.6 °F73 %30.27 in6.2 miVariable5.8 mphPartly Cloudy
10:00 AM72.0 °F61.0 °F60 %30.23 inNE (40°)8.1 mph
10:20 AM73.4 °F60.8 °F65 %30.27 in6.2 miNE (40°)9.2 mphPartly Cloudy
10:50 AM73.4 °F60.8 °F65 %30.27 in6.2 miNE (50°)9.2 mphPartly Cloudy
11:20 AM75.2 °F62.6 °F65 %30.27 in6.2 miENE (60°)11.5 mphPartly Cloudy
11:50 AM75.2 °F62.6 °F65 %30.27 in6.2 miNE (50°)10.4 mphPartly Cloudy
12:00 PM76.0 °F62.0 °F52 %30.21 inNE (40°)11.5 mph
12:20 PM77.0 °F62.6 °F61 %30.27 in6.2 miNE (50°)10.4 mphPartly Cloudy
12:50 PM77.0 °F62.6 °F61 %30.24 in6.2 miNE (50°)10.4 mphPartly Cloudy
1:00 PM78.0 °F62.0 °F49 %30.19 inNE (40°)11.5 mph
1:20 PM77.0 °F64.4 °F65 %30.24 in6.2 miNE (40°)11.5 mphPartly Cloudy
1:50 PM78.8 °F62.6 °F57 %30.24 in6.2 miNE (50°)9.2 mphPartly Cloudy
2:00 PM78.0 °F60.0 °F44 %30.18 in9.0 miNE (40°)11.5 mphHaze
2:20 PM80.6 °F62.6 °F54 %30.24 in6.2 miNE (50°)12.7 mphPartly Cloudy
2:50 PM80.6 °F62.6 °F54 %30.21 in6.2 miNE (50°)8.1 mphPartly Cloudy
3:00 PM79.0 °F61.0 °F44 %30.16 inNE (50°)9.2 mph
3:20 PM82.4 °F62.6 °F51 %30.21 in6.2 miNE (40°)9.2 mphPartly Cloudy
3:50 PM82.4 °F62.6 °F51 %30.21 in6.2 miNE (40°)9.2 mphThunderstormPartly Cloudy
4:00 PM80.0 °F62.0 °F44 %30.14 inNNE (30°)10.4 mph
4:20 PM78.8 °F62.6 °F57 %30.21 in6.2 miNE (50°)11.5 mphThunderstormPartly Cloudy
4:50 PM78.8 °F62.6 °F57 %30.21 in6.2 miNNE (20°)6.9 mphThunderstormScattered Clouds
5:20 PM78.8 °F62.6 °F57 %30.21 in6.2 miNNE (20°)4.6 mphMostly Cloudy
5:50 PM78.8 °F64.4 °F61 %30.21 in6.2 miNorth (350°)3.5 mphMostly Cloudy
6:00 PM77.0 °F63.0 °F52 %30.14 inNorth3.5 mph
6:20 PM78.8 °F62.6 °F57 %30.18 in6.2 miNNW (340°)3.5 mphMostly Cloudy
6:50 PM77.0 °F62.6 °F61 %30.18 in6.2 miNorth (10°)5.8 mphMostly Cloudy
7:00 PM76.0 °F62.0 °F53 %30.13 inNNE (20°)8.1 mph
7:20 PM77.0 °F62.6 °F61 %30.18 in6.2 miNorth (360°)3.5 mphMostly Cloudy
7:50 PM77.0 °F64.4 °F65 %30.18 in6.2 miNorth (10°)3.5 mphMostly Cloudy
8:20 PM77.0 °F64.4 °F65 %30.18 in6.2 miNorth (10°)3.5 mphMostly Cloudy
8:50 PM75.2 °F64.4 °F69 %30.21 in6.2 miNorth (10°)3.5 mphMostly Cloudy
9:00 PM74.0 °F63.0 °F60 %30.15 inNorth (10°)4.6 mph
9:20 PM73.4 °F64.4 °F73 %30.21 in6.2 miNNE (20°)4.6 mphMostly Cloudy
9:50 PM71.6 °F64.4 °F78 %30.21 in6.2 miVariable2.3 mphMostly Cloudy
10:00 PM72.0 °F63.0 °F66 %30.17 inNorth2.3 mph
10:20 PM69.8 °F64.4 °F83 %30.21 in6.2 miCalmMostly Cloudy
10:50 PM69.8 °F64.4 °F83 %30.21 inCalmClear
11:20 PM68.0 °F64.4 °F88 %30.21 inCalmClear
11:50 PM66.2 °F64.4 °F94 %30.21 inCalmClear
Hourly data recorded from LSGG, located miles away from Geneva, Switzerland







STORIES FROM OUR PARTNERS